Weather History for KCMR - October, 2013

Change the Weather History Date:

Sunday, October 13, 2013

  Actual Average (KFLG) Record (KFLG)
Temperature  
Mean Temperature 50 °F 48 °F  
Max Temperature 59 °F 63 °F 79 °F (1950)
Min Temperature 41 °F 32 °F 12 °F (1969)
Degree Days  
Heating Degree Days 15 17  
Month to date heating degree days 198  
Since 1 July heating degree days 515  
Cooling Degree Days 0 0  
Month to date cooling degree days 0  
Year to date cooling degree days 117  
Moisture  
Dew Point 28 °F    
Average Humidity 44    
Maximum Humidity 61    
Minimum Humidity 29    
Precipitation  
Precipitation 0.00 in 0.06 in 1.31 in (1941)
Month to date precipitation 0.73  
Year to date precipitation 17.30  
Snow  
Snow 0.00 in 0.10 in T in (1947)
Month to date snowfall 0.3  
Since 1 July snowfall 0.3  
Snow Depth -    
Sea Level Pressure  
Sea Level Pressure 30.14 in    
Wind  
Wind Speed 12 mph (South)    
Max Wind Speed 23 mph    
Max Gust Speed 36 mph    
Visibility 10 miles    
Events      
T = Trace of Precipitation, MM = Missing Value Source: NWS Daily Summary

Daily Weather History Graph

Daily Weather History Graph

Search for Another Location

Airport or City:

Trip Planner

Search our weather history database for the weather conditions in past years. The results will help you decide how hot, cold, wet, or windy it might be!

Date:

Astronomy

Oct. 13, 2013 Rise Set
Actual Time 6:33 AM MST 5:55 PM MST
Civil Twilight 6:07 AM MST 6:21 PM MST
Nautical Twilight 5:38 AM MST 6:50 PM MST
Astronomical Twilight 5:09 AM MST 7:20 PM MST
Moon 2:39 PM MST (10/13) 12:59 AM MST (10/13)
Length of Visible Light 12h 13m
Length of Day
11h 22m
Waxing Gibbous, 70% of the Moon is Illuminated
Oct 13
Waxing Gibbous
Oct 18
Full
Oct 26
Last Quarter
Nov 3
New
Nov 9
First Quarter

Hourly Weather History & Observations

Time (MST) Temp. Windchill Dew Point Humidity Pressure Visibility Wind Dir Wind Speed Gust Speed Precip Events Conditions
12:15 AM 46.4 °F 41.5 °F 28.4 °F 50% 30.16 in 10.0 mi SE 10.4 mph - N/A   Clear
12:35 AM 46.4 °F 41.1 °F 28.4 °F 50% 30.16 in 10.0 mi SE 11.5 mph - N/A   Clear
12:55 AM 46.4 °F 40.7 °F 28.4 °F 50% 30.15 in 10.0 mi SE 12.7 mph 17.3 mph N/A   Clear
1:15 AM 46.4 °F 44.3 °F 28.4 °F 50% 30.15 in 10.0 mi South 4.6 mph 18.4 mph N/A   Clear
1:35 AM 44.6 °F - 26.6 °F 49% 30.15 in 10.0 mi Calm Calm - N/A   Clear
1:55 AM 44.6 °F 40.7 °F 26.6 °F 49% 30.15 in 10.0 mi SSE 6.9 mph - N/A   Clear
2:15 AM 44.6 °F 43.1 °F 28.4 °F 53% 30.14 in 10.0 mi South 3.5 mph - N/A   Clear
2:35 AM 46.4 °F 43.5 °F 28.4 °F 50% 30.13 in 10.0 mi South 5.8 mph 20.7 mph N/A   Clear
2:55 AM 44.6 °F 40.7 °F 28.4 °F 53% 30.13 in 10.0 mi SSE 6.9 mph - N/A   Clear
3:15 AM 46.4 °F 41.9 °F 28.4 °F 50% 30.13 in 10.0 mi SSE 9.2 mph - N/A   Clear
3:35 AM 42.8 °F 38.0 °F 28.4 °F 57% 30.12 in 10.0 mi SSE 8.1 mph - N/A   Clear
3:55 AM 44.6 °F 39.7 °F 28.4 °F 53% 30.12 in 10.0 mi SSE 9.2 mph 16.1 mph N/A   Clear
4:15 AM 44.6 °F 40.7 °F 28.4 °F 53% 30.12 in 10.0 mi South 6.9 mph - N/A   Clear
4:35 AM 42.8 °F 37.5 °F 28.4 °F 57% 30.12 in 10.0 mi South 9.2 mph - N/A   Clear
4:55 AM 44.6 °F 40.7 °F 28.4 °F 53% 30.13 in 10.0 mi SSE 6.9 mph - N/A   Clear
5:15 AM 44.6 °F 42.2 °F 28.4 °F 53% 30.14 in 10.0 mi South 4.6 mph - N/A   Clear
5:35 AM 41.0 °F 35.2 °F 28.4 °F 61% 30.14 in 10.0 mi SE 9.2 mph - N/A   Clear
5:55 AM 41.0 °F 35.8 °F 28.4 °F 61% 30.13 in 10.0 mi SE 8.1 mph - N/A   Clear
6:15 AM 42.8 °F 36.2 °F 28.4 °F 57% 30.13 in 10.0 mi SSE 12.7 mph 18.4 mph N/A   Clear
6:35 AM 42.8 °F 37.5 °F 28.4 °F 57% 30.12 in 10.0 mi SSE 9.2 mph - N/A   Clear
6:55 AM 42.8 °F 37.5 °F 28.4 °F 57% 30.12 in 10.0 mi SSE 9.2 mph - N/A   Clear
7:15 AM 44.6 °F 37.2 °F 28.4 °F 53% 30.12 in 10.0 mi SSE 17.3 mph 21.9 mph N/A   Clear
7:35 AM 48.2 °F - 28.4 °F 46% 30.12 in 10.0 mi South 15.0 mph 24.2 mph N/A   Clear
7:55 AM 50.0 °F - 28.4 °F 43% 30.13 in 10.0 mi South 19.6 mph 27.6 mph N/A   Clear
8:15 AM 50.0 °F - 30.2 °F 47% 30.14 in 10.0 mi South 17.3 mph 32.2 mph N/A   Clear
8:55 AM 50.0 °F - 32.0 °F 50% 30.16 in 10.0 mi South 19.6 mph 34.5 mph N/A   Clear
9:15 AM 51.8 °F - 32.0 °F 47% 30.16 in 10.0 mi South 23.0 mph 28.8 mph N/A   Clear
9:35 AM 53.6 °F - 32.0 °F 44% 30.15 in 10.0 mi South 18.4 mph 28.8 mph N/A   Clear
9:55 AM 53.6 °F - 30.2 °F 41% 30.16 in 10.0 mi SSW 20.7 mph 29.9 mph N/A   Clear
10:15 AM 53.6 °F - 30.2 °F 41% 30.16 in 10.0 mi South 20.7 mph 31.1 mph N/A   Clear
10:35 AM 55.4 °F - 30.2 °F 38% 30.16 in 10.0 mi SSW 19.6 mph 26.5 mph N/A   Clear
10:55 AM 55.4 °F - 30.2 °F 38% 30.17 in 10.0 mi South 21.9 mph 28.8 mph N/A   Clear
11:15 AM 55.4 °F - 32.0 °F 41% 30.17 in 10.0 mi SSW 18.4 mph 31.1 mph N/A   Clear
11:35 AM 55.4 °F - 32.0 °F 41% 30.17 in 10.0 mi South 19.6 mph 29.9 mph N/A   Clear
11:55 AM 57.2 °F - 30.2 °F 36% 30.16 in 10.0 mi South 17.3 mph 25.3 mph N/A   Clear
12:15 PM 57.2 °F - 28.4 °F 33% 30.14 in 10.0 mi SSW 19.6 mph 28.8 mph N/A   Clear
12:35 PM 57.2 °F - 28.4 °F 33% 30.14 in 10.0 mi South 23.0 mph 29.9 mph N/A   Clear
12:55 PM 57.2 °F - 26.6 °F 31% 30.13 in 10.0 mi SSW 19.6 mph 29.9 mph N/A   Clear
1:15 PM 59.0 °F - 28.4 °F 31% 30.12 in 10.0 mi South 20.7 mph 29.9 mph N/A   Clear
1:35 PM 59.0 °F - 28.4 °F 31% 30.12 in 10.0 mi SSW 19.6 mph 35.7 mph N/A   Clear
1:55 PM 59.0 °F - 28.4 °F 31% 30.11 in 10.0 mi SSW 19.6 mph 29.9 mph N/A   Clear
2:15 PM 59.0 °F - 26.6 °F 29% 30.10 in 10.0 mi SSW 20.7 mph 27.6 mph N/A   Clear
2:35 PM 59.0 °F - 28.4 °F 31% 30.10 in 10.0 mi South 18.4 mph 33.4 mph N/A   Clear
2:55 PM 57.2 °F - 26.6 °F 31% 30.10 in 10.0 mi South 18.4 mph 29.9 mph N/A   Clear
3:15 PM 57.2 °F - 24.8 °F 29% 30.09 in 10.0 mi South 19.6 mph 29.9 mph N/A   Clear
3:35 PM 57.2 °F - 24.8 °F 29% 30.09 in 10.0 mi SSW 18.4 mph 28.8 mph N/A   Clear
3:55 PM 57.2 °F - 24.8 °F 29% 30.09 in 10.0 mi South 19.6 mph 28.8 mph N/A   Clear
4:15 PM 57.2 °F - 26.6 °F 31% 30.10 in 10.0 mi SSW 16.1 mph 27.6 mph N/A   Clear
4:35 PM 55.4 °F - 28.4 °F 36% 30.10 in 10.0 mi SSW 18.4 mph 26.5 mph N/A   Partly Cloudy
4:55 PM 55.4 °F - 28.4 °F 36% 30.10 in 10.0 mi SW 20.7 mph 26.5 mph N/A   Clear
5:15 PM 53.6 °F - 26.6 °F 35% 30.11 in 10.0 mi SW 18.4 mph 25.3 mph N/A   Clear
5:35 PM 53.6 °F - 28.4 °F 38% 30.12 in 10.0 mi SW 13.8 mph 29.9 mph N/A   Clear
5:55 PM 51.8 °F - 26.6 °F 38% 30.13 in 10.0 mi SW 15.0 mph 20.7 mph N/A   Clear
6:15 PM 50.0 °F - 23.0 °F 35% 30.14 in 10.0 mi SW 13.8 mph 21.9 mph N/A   Clear
6:35 PM 50.0 °F - 23.0 °F 35% 30.14 in 10.0 mi SW 15.0 mph 19.6 mph N/A   Clear
6:55 PM 48.2 °F - 23.0 °F 37% 30.15 in 10.0 mi SSW 11.5 mph 17.3 mph N/A   Clear
7:15 PM 48.2 °F - 23.0 °F 37% 30.16 in 10.0 mi SSW 10.4 mph - N/A   Clear
7:35 PM 48.2 °F - 23.0 °F 37% 30.16 in 10.0 mi SSW 9.2 mph 16.1 mph N/A   Clear
7:55 PM 46.4 °F 40.7 °F 23.0 °F 40% 30.17 in 10.0 mi South 12.7 mph - N/A   Scattered Clouds
8:15 PM 46.4 °F 40.7 °F 23.0 °F 40% 30.17 in 10.0 mi SSW 12.7 mph 17.3 mph N/A   Mostly Cloudy
8:35 PM 46.4 °F 41.9 °F 24.8 °F 43% 30.18 in 10.0 mi SSW 9.2 mph - N/A   Mostly Cloudy
8:55 PM 48.2 °F - 24.8 °F 40% 30.18 in 10.0 mi SW 9.2 mph - N/A   Scattered Clouds
9:15 PM 46.4 °F 41.5 °F 26.6 °F 46% 30.19 in 10.0 mi SW 10.4 mph - N/A   Scattered Clouds
9:35 PM 46.4 °F 42.4 °F 26.6 °F 46% 30.19 in 10.0 mi SW 8.1 mph - N/A   Scattered Clouds
9:55 PM 46.4 °F 42.4 °F 26.6 °F 46% 30.19 in 10.0 mi SW 8.1 mph - N/A   Mostly Cloudy
10:15 PM 46.4 °F 42.4 °F 26.6 °F 46% 30.19 in 10.0 mi SW 8.1 mph - N/A   Mostly Cloudy
10:35 PM 46.4 °F 41.9 °F 26.6 °F 46% 30.20 in 10.0 mi SW 9.2 mph - N/A   Mostly Cloudy
10:55 PM 44.6 °F 40.2 °F 28.4 °F 53% 30.20 in 10.0 mi SW 8.1 mph - N/A   Partly Cloudy
11:15 PM 44.6 °F 41.4 °F 26.6 °F 49% 30.20 in 10.0 mi WSW 5.8 mph - N/A   Clear
11:35 PM 41.0 °F 37.1 °F 26.6 °F 57% 30.21 in 10.0 mi SW 5.8 mph - N/A   Clear
11:55 PM 41.0 °F 37.1 °F 26.6 °F 57% 30.21 in 10.0 mi SW 5.8 mph - N/A   Clear